Location: Armstrong Village
(14.3346°N, 120.9854°E)
Time: 02:51:33
(UTC+00:00)

YAOGAN 1 - Pass Details

Date: 13 January 2026
Orbit: 605 x 607 km, 97.8° (Epoch: 16 February)

Event Time Altitude Azimuth Distance (km) Brightness Sun altitude
Rises 11:00:27 0° 179° (S) 2,851 6.2 -17.9°
Reaches altitude 10° 11:02:41 10° 185° (S) 1,949 5.4 -18.4°
Maximum altitude 11:06:46 47° 260° (W) 803 3.5 -19.4°
Drops below altitude 10° 11:10:51 10° 334° (NNW) 1,951 5.2 -20.3°
Sets 11:13:05 0° 340° (NNW) 2,854 6.0 -20.8°
